This demonstration page uses our WeatherBlox Daily Observations layout. Learn more.

Left ArrowRight Arrow

41.55636, -103.73856

Hourly Observations for January 19, 2022

Temp ( °F °C ) Dew Point ( °F °C ) Humidity (%) Winds ( mph kmh ) Pressure ( in mb ) Visibility ( mi km ) Precip ( " mm )
12:58 am 00:58 Cloudy 22 -5.8 19 -7.5 88 88 NE 13 20 30.19 1022 10 16 0.00 0.00
1:58 am 01:58 Cloudy 19 -7 17 -8.6 89 89 NE 13 20 30.22 1023 10 16 0.00 0.00
2:58 am 02:58 Cloudy with Light Snow 18 -7.7 14 -9.9 84 84 ENE 8 13 30.24 1024 10 16 0.00 0.00
3:58 am 03:58 Cloudy with Light Snow Showers 18 -8 14 -10.1 85 85 NE 8 13 30.26 1025 10 16 0.00 0.00
4:58 am 04:58 Cloudy with Light Snow 16 -8.9 13 -10.8 86 86 NE 9 15 30.31 1027 10 16 0.00 0.00
5:58 am 05:58 Cloudy with Light Snow 15 -9.7 11 -11.6 86 86 NE 10 17 30.36 1028 10 16 0.00 0.00
6:58 am 06:58 Cloudy with Light Snow 13 -10.4 10 -12.1 87 87 ENE 7 11 30.39 1029 4 6 0.00 0.00
7:58 am 07:58 Cloudy with Light Snow 13 -10.8 10 -12.5 87 87 ENE 8 13 30.46 1031 7 11 0.00 0.00
8:58 am 08:58 Cloudy with Light Snow 13 -10.5 10 -12.5 85 85 NE 8 13 30.49 1032 2 3 0.00 0.00
9:58 am 09:58 Mostly Cloudy with Light Snow 13 -10.3 9 -12.9 81 81 N 8 13 30.51 1033 5 8 0.00 0.00
10:58 am 10:58 Mostly Cloudy with Light Snow Showers 13 -10.4 8 -13.3 80 80 N 9 15 30.54 1034 4 6 0.00 0.00
11:58 am 11:58 Cloudy with Light Snow 13 -10.3 8 -13.1 80 80 N 7 11 30.52 1034 4 6 0.00 0.00
12:58 pm 12:58 Mostly Cloudy with Light Snow 14 -9.8 9 -12.7 80 80 NNE 7 11 30.52 1034 10 16 0.00 0.00
1:58 pm 13:58 Cloudy with Light Snow Showers 14 -9.8 8 -13.4 75 75 NE 7 11 30.53 1034 10 16 0.00 0.00
2:58 pm 14:58 Cloudy with Light Snow 14 -10 9 -13 79 79 ENE 5 7 30.55 1034 2 3 0.00 0.00
3:58 pm 15:58 Cloudy with Light Snow 14 -10.2 9 -13 80 80 Calm 30.55 1035 3 4 0.00 0.00
4:58 pm 16:58 Mostly Cloudy with Light Snow 12 -11.3 8 -13.4 85 85 ESE 6 9 30.58 1036 10 16 0.00 0.00
5:58 pm 17:58 Mostly Cloudy with Light Snow Showers 10 -12.2 8 -13.6 89 89 ESE 7 11 30.60 1036 10 16 0.00 0.00
6:58 pm 18:58 Cloudy with Light Snow 11 -11.5 8 -13.1 88 88 ESE 5 7 30.62 1037 10 16 0.00 0.00
7:58 pm 19:58 Cloudy with Light Snow 12 -11.1 10 -12.5 90 90 ESE 5 7 30.63 1037 7 11 0.00 0.00
8:58 pm 20:58 Cloudy with Light Snow 13 -10.5 10 -12.4 86 86 SSW 5 7 30.61 1037 8 13 0.00 0.00
9:58 pm 21:58 Mostly Cloudy with Light Snow 12 -11.3 8 -13.5 84 84 S 3 6 30.62 1037 10 16 0.00 0.00
10:58 pm 22:58 Mostly Cloudy 10 -12.1 6 -14.4 83 83 S 5 7 30.61 1037 10 16 0.00 0.00
11:58 pm 23:58 Clear 7 -13.8 4 -15.6 86 86 SSW 8 13 30.60 1036 10 16 0.00 0.00

Powered by AerisWeather